NOAA 16 DEB

Satellite information

Favourite Embed

Satellite Type and Status

DEBRISIN ORBIT

Key statistics

Satellite NOAA 16 DEB at a glance.

Uptime

9215

Days in orbit

Revolutions

≈ 14.3

Per day

Orbit

SSO

Sun Synchronous Orbit

Inclination

98.7

Latest

Satellite identification and parameters

Extended collection of information and parameters for NOAA 16 DEB.

Object identification

Identified? True

Debris? True

Object name: NOAA 16 DEB

International designator: 2000-055AY

Object number (NORAD): 41089

Object ID (CCSDS): 41089

Country: UNITED STATES OF AMERICA (US)

Current information (Y/N): Y

RCS size: SMALL

Orbital parameters

Period: 100.528 minutes

Inclination: 98.6971 deg

SMA: 7161.721 km

Apoapsis: 787.33 km

Periapsis: 779.843 km

RAAN: 64.6481 deg

Eccentricy: 0.00052271

Argument of periapsis: 309.0361 deg

Mean anomaly: 51.0357 deg

Mean motion: 14.32440602 rev/day

Mean motion (dot): 0.0000928 rev/day2

B* drag term: 0.0034401745 1/REarth

Two-line elements (TLE)

Creation date: Dec. 14, 2025, 3:07 a.m.

Reference frame: TEME

Reference center: EARTH

Epoch: Dec. 13, 2025, 11:28 a.m. UTC

TLE line 0: 0 NOAA 16 DEB

TLE line 1: 1 41089U 00055AY 25347.47833584 .00009280 00000-0 34402-2 0 9999

TLE line 2: 2 41089 98.6971 64.6481 0005227 309.0361 51.0357 14.32440602519014

Live tracking on map

Real-time ground track for satellite NOAA 16 DEB.

In-orbit conjunctions

A list of the most updated potential collisions computed for object NOAA 16 DEB.

Target Orbit TCA Probability of collision Miss distance Type
CZ-2D R/B SSO 2025-05-22 00:00:23 0.0001375267 613.0 (m) ROCKET BODY
THORAD AGENA D DEB LEO 2025-02-03 01:33:05 0.0001371293 36.0 (m) DEBRIS

Associated space launch

The NOAA K, L and M POES satellites begin the fifth generation of improved environmental monitoring in support of NOAA missions. The instrument payload has significant improvements and additions/deletions. The instrument changes have effected the spacecraft subsystems and data formats.

NOAA 16 DEB was lifted into orbit during the mission ‘Titan II SLV | NOAA 16’, on board a Titan II SLV space rocket.

The launch took place on Sept. 21, 2000, 10:22 a.m. from Space Launch Complex 4W.

For more information about the launch, click the button.

Launch to space Titan II SLV | NOAA 16
Titan II SLV | NOAA 16

Agency: N/A

Status: Launch Successful

Launch date: Sept. 21, 2000, 10:22 a.m. UTC

Rocket: Titan II SLV

Launch pad: Space Launch Complex 4W

Location: Vandenberg SFB, CA, USA

...

Latest news about this satellite

There are no fresh news available about this satellite. Check back as we update our databases every day.


Newsletter sign-up

Weekly statistics, charts and insights to help you stay on top of the space industry.